Tampa, FL

3:56 AM EST on December 04, 2016 (GMT -0500)
MacDill Air Force Base

Weather History for KMCF - March, 2014

Change the Weather History Date:

Sunday, March 2, 2014

  Actual Average Record
Temperature  
Mean Temperature 68 °F -  
Max Temperature 81 °F 73 °F 86 °F (2002)
Min Temperature 54 °F 55 °F 42 °F (2005)
Cooling Degree Days 2    
Growing Degree Days 18 (Base 50)    
Moisture  
Dew Point 57 °F    
Average Humidity 79    
Maximum Humidity 100    
Minimum Humidity 37    
Precipitation  
Precipitation 0.00 in - - ()
Sea Level Pressure  
Sea Level Pressure 30.15 in    
Wind  
Wind Speed 8 mph (ENE)    
Max Wind Speed 13 mph    
Max Gust Speed -    
Visibility 10 miles    
Events      
Averages and records for this station are not official NWS values.
T = Trace of Precipitation, MM = Missing Value Source: NWS Daily Summary

Daily Weather History Graph

Daily Weather History Graph

Search for Another Location

Airport or City:

Trip Planner

Search our weather history database for the weather conditions in past years. The results will help you decide how hot, cold, wet, or windy it might be!

Date:

Astronomy

Mar. 02, 2014 Rise Set
Actual Time 6:53 AM EST 6:31 PM EST
Civil Twilight 6:30 AM EST 6:54 PM EST
Nautical Twilight 6:02 AM EST 7:21 PM EST
Astronomical Twilight 5:35 AM EST 7:49 PM EST
Moon 7:34 AM EST (3/2) 8:12 PM EST (3/2)
Length of Visible Light 12h 24m
Length of Day
11h 37m
Waxing Crescent, 3% of the Moon is Illuminated
Mar 2
Waxing Crescent
Mar 8
First Quarter
Mar 16
Full
Mar 23
Last Quarter
Mar 30
New

Hourly Weather History & Observations

Time (EST) Temp. Heat Index Dew Point Humidity Pressure Visibility Wind Dir Wind Speed Gust Speed Precip Events Conditions
12:58 AM 54.3 °F - 51.6 °F 91% 30.19 in 10.0 mi East 5.8 mph - N/A   Clear
1:58 AM 54.0 °F - 53.1 °F 97% 30.19 in 10.0 mi East 9.2 mph - N/A   Clear
2:58 AM 54.7 °F - 54.3 °F 99% 30.17 in 10.0 mi East 10.4 mph - N/A   Clear
3:58 AM 56.8 °F - 56.5 °F 99% 30.16 in 10.0 mi East 11.5 mph - N/A   Clear
4:58 AM 56.5 °F - 56.1 °F 99% 30.16 in 10.0 mi East 9.2 mph - N/A   Clear
5:58 AM 55.8 °F - 55.6 °F 99% 30.17 in 10.0 mi East 10.4 mph - N/A   Clear
6:58 AM 54.3 °F - 54.0 °F 99% 30.19 in 10.0 mi ENE 9.2 mph - N/A   Clear
7:58 AM 58.1 °F - 58.1 °F 100% 30.21 in 10.0 mi East 12.7 mph - N/A   Clear
8:58 AM 62.4 °F - 59.4 °F 90% 30.22 in 10.0 mi East 11.5 mph - N/A   Clear
9:58 AM 68.4 °F - 60.8 °F 77% 30.23 in 10.0 mi East 9.2 mph - N/A   Clear
10:58 AM 73.6 °F - 61.7 °F 66% 30.23 in 10.0 mi East 5.8 mph - N/A   Clear
11:58 AM 76.1 °F - 60.3 °F 58% 30.20 in 10.0 mi South 6.9 mph - N/A   Clear
12:58 PM 80.1 °F 80.6 °F 58.3 °F 47% 30.17 in 10.0 mi South 4.6 mph - N/A   Clear
1:58 PM 81.0 °F 80.8 °F 56.1 °F 42% 30.14 in 10.0 mi West 6.9 mph - N/A   Clear
2:58 PM 80.2 °F 80.2 °F 54.7 °F 41% 30.11 in 10.0 mi WNW 4.6 mph - N/A   Clear
3:58 PM 81.3 °F - 52.9 °F 37% 30.09 in 10.0 mi West 5.8 mph - N/A   Clear
4:58 PM 77.9 °F - 62.8 °F 60% 30.10 in 10.0 mi WSW 9.2 mph - N/A   Clear
5:58 PM 74.7 °F - 61.7 °F 64% 30.10 in 10.0 mi WNW 6.9 mph - N/A   Clear
6:58 PM 69.1 °F - 61.3 °F 76% 30.11 in 10.0 mi NW 5.8 mph - N/A   Clear
7:58 PM 65.5 °F - 60.8 °F 85% 30.11 in 10.0 mi NNW 4.6 mph - N/A   Clear
8:58 PM 63.0 °F - 59.2 °F 87% 30.11 in 10.0 mi North 2.3 mph - N/A   Clear
9:58 PM 59.0 °F - 57.6 °F 95% 30.10 in 10.0 mi NNW 1.2 mph - N/A   Clear
10:58 PM 58.3 °F - 56.8 °F 95% 30.10 in 10.0 mi East 2.3 mph - N/A   Clear
11:58 PM 57.7 °F - 55.8 °F 93% 30.09 in 10.0 mi ESE 2.3 mph - N/A   Clear